Wind_Speed
28 29 30 30 30 30 32 35 38 39 40 41 43 45 46 47 48 48 48 48 48 48 48 48 47 47 49 50 48 45 43 44 43 39 38 38 36 33 32 30 29 29 28 27 25 24 23 23 23 24 26 26 27 26 25 24 22 21 20 19 19 18 17 16 14 14 14 15 14 13 13 12 12 12 12 12 12 11 11 12 13 13 14 15 15
24 23 22 23 24 25 26 29 34 37 39 40 42 44 46 46 47 48 48 48 49 49 49 49 48 47 49 52 49 44 45 46 43 40 39 40 39 35 33 32 32 31 30 29 27 26 25 25 25 25 27 27 27 26 25 25 24 23 23 22 22 20 19 17 16 16 16 16 15 13 13 13 13 13 13 12 10 9 10 10 12 13 14 15 15
34 30 24 19 19 20 22 24 27 32 37 39 40 42 44 46 47 47 48 49 49 49 50 51 49 45 46 51 48 42 44 46 42 40 41 42 41 37 35 36 35 34 32 31 29 28 27 26 26 26 27 28 28 28 28 28 27 26 26 25 23 22 20 19 19 18 17 16 14 13 14 12 12 13 13 11 11 10 9 10 11 13 14 15 16
42 40 34 25 18 16 18 21 23 27 32 36 39 40 43 45 46 47 48 48 49 49 50 50 49 46 44 47 49 43 43 46 45 44 45 44 43 40 39 38 37 36 34 33 32 30 29 29 28 28 28 28 29 29 30 30 29 28 27 26 25 24 22 21 20 19 18 17 14 14 14 12 11 12 12 11 11 10 11 12 13 14 15 15 16
44 45 43 37 29 20 15 15 19 23 27 31 36 39 42 44 45 46 47 48 48 48 49 48 48 48 46 47 50 49 46 47 49 49 49 47 46 44 41 40 39 38 37 36 35 33 32 31 30 30 29 29 29 30 31 30 30 29 29 28 27 24 22 21 20 20 19 18 17 16 13 12 12 12 10 10 11 12 12 13 14 15 16 17 17
44 46 46 43 38 30 21 15 14 18 22 26 31 35 39 42 44 45 46 47 47 48 48 48 48 49 50 50 52 53 51 51 52 50 49 48 47 45 43 42 41 41 40 38 38 36 34 33 32 32 31 30 30 31 32 32 31 31 31 29 27 25 23 23 23 22 20 20 22 21 18 15 14 13 11 10 12 13 14 14 15 16 17 18 18
45 47 48 47 44 39 32 25 18 14 16 21 26 30 34 39 41 43 44 45 46 47 47 47 49 50 51 51 53 54 54 53 52 50 49 47 46 46 45 44 44 43 42 41 40 39 37 35 34 34 33 32 32 32 33 33 33 33 32 30 28 27 26 26 25 24 23 22 23 23 22 20 18 17 15 13 12 13 16 17 17 18 19 19 20
44 47 49 50 48 45 40 33 26 18 13 14 18 23 28 34 38 40 42 43 44 46 46 47 48 50 51 51 52 55 55 53 51 51 51 49 47 47 47 46 46 45 44 42 41 41 39 38 36 36 35 34 34 34 34 35 35 34 33 31 30 29 29 28 26 25 25 24 22 23 22 22 21 21 19 18 15 15 17 19 20 20 21 21 22
41 45 47 49 49 48 44 38 31 24 18 13 11 15 19 25 31 36 39 40 42 44 46 47 48 49 51 52 53 53 53 52 52 51 51 50 49 48 48 49 48 46 45 44 43 42 42 40 39 38 37 36 36 36 36 36 36 36 35 34 33 32 31 30 28 28 26 24 23 23 22 22 23 22 21 21 21 19 19 21 22 23 24 24 24
40 43 45 46 47 47 45 42 37 32 27 19 12 10 12 15 20 27 32 36 39 41 43 46 48 49 50 52 53 53 52 52 53 52 51 50 50 50 51 51 50 49 47 46 44 44 43 42 41 40 39 38 38 38 37 38 38 37 36 36 35 33 32 31 30 28 27 25 24 24 24 24 24 23 22 22 22 22 22 22 23 24 24 24 24
38 42 44 45 45 45 45 45 44 40 34 28 22 16 10 11 13 16 21 27 32 37 40 43 46 48 50 51 52 52 52 52 53 54 53 52 52 53 53 53 52 51 49 48 47 46 45 44 43 42 41 40 40 40 39 39 39 39 38 37 37 35 33 33 31 29 28 27 26 26 26 25 24 23 22 21 21 23 24 24 23 23 23 23 24
36 39 42 44 44 45 45 45 45 44 41 38 33 27 19 13 11 12 13 17 22 28 34 39 42 46 48 50 51 52 52 53 54 55 55 55 54 53 53 54 54 52 51 50 49 48 46 46 46 44 44 43 43 42 41 40 40 41 40 39 39 37 35 34 33 31 30 29 27 27 26 25 25 23 21 21 21 22 22 23 24 23 23 24 25
37 37 38 41 43 44 44 45 45 45 44 42 39 35 30 23 17 13 12 14 16 19 23 29 35 40 44 47 49 51 52 53 54 54 55 55 55 54 54 55 55 54 53 52 51 49 47 47 47 47 46 45 44 44 43 42 42 43 42 41 40 39 37 36 35 33 31 29 27 26 26 25 25 23 22 22 22 22 22 23 24 23 23 25 25
35 34 34 37 40 41 41 43 44 44 43 42 40 38 35 31 26 20 15 13 14 16 17 20 23 29 35 41 45 48 51 52 53 53 53 54 54 54 54 55 55 55 54 53 51 50 49 49 49 49 48 46 45 45 45 44 44 44 44 43 42 40 38 37 36 34 31 29 28 27 27 26 25 24 24 24 24 24 25 25 26 25 24 25 25
32 32 32 35 39 40 40 40 42 43 43 42 40 39 36 34 31 28 23 19 16 14 15 17 19 21 25 30 36 42 47 49 51 52 52 52 53 54 55 55 56 56 55 54 52 51 50 50 50 50 49 48 47 46 46 46 45 45 45 45 43 41 40 38 36 35 33 31 30 28 28 27 26 25 25 25 25 25 26 26 26 26 25 26 26
33 34 34 36 38 38 39 39 40 42 42 41 41 40 38 36 33 30 28 25 22 18 15 15 17 20 22 23 26 30 37 43 47 49 50 51 52 53 54 55 55 55 54 54 52 52 51 50 50 51 50 49 49 48 48 47 47 47 47 46 45 43 42 40 38 37 34 32 30 29 29 28 27 26 26 26 26 26 26 26 26 26 26 26 26
30 32 32 33 36 38 38 38 38 40 41 41 41 40 40 38 35 32 29 27 25 23 20 17 16 16 19 22 23 23 27 32 38 43 47 49 51 52 53 53 54 54 53 53 53 52 51 51 51 51 50 50 50 49 49 49 48 48 48 47 47 45 43 41 40 38 35 33 32 31 30 29 28 27 27 27 27 27 27 27 27 27 27 26 26
28 30 29 30 34 37 38 38 38 38 40 40 40 40 40 39 37 34 32 30 28 26 23 20 19 17 16 18 21 23 24 25 28 33 39 43 47 50 51 53 53 53 53 53 53 53 52 51 51 51 51 50 50 50 50 50 50 49 48 48 48 46 45 43 41 39 36 34 33 32 31 30 29 28 27 27 27 27 27 27 27 27 27 27 27
31 32 30 29 32 35 36 37 38 38 39 40 41 41 41 40 39 36 34 31 30 28 25 22 21 19 18 17 18 21 23 24 24 25 29 35 40 44 47 50 52 52 53 53 53 52 52 52 51 51 51 50 50 50 50 51 52 51 50 49 49 48 46 44 42 40 37 35 34 33 32 31 30 29 28 28 28 28 28 28 27 27 27 27 27
33 33 32 30 32 34 34 35 36 37 39 41 42 43 43 42 41 38 36 33 31 30 28 26 24 22 20 18 17 18 20 23 24 24 25 28 32 36 41 44 47 50 51 52 52 52 52 51 51 50 50 50 50 50 50 52 53 53 52 51 50 50 48 46 43 41 38 37 35 34 33 33 31 29 29 29 29 29 29 28 28 27 27 27 26
31 32 32 31 32 34 34 34 35 35 38 40 42 43 44 43 42 41 39 37 35 33 31 30 28 26 24 21 19 18 18 20 22 24 25 26 27 30 33 37 40 44 47 49 50 50 50 50 50 50 50 50 50 50 50 51 52 53 53 52 52 51 49 47 44 42 40 38 37 35 35 33 32 30 30 30 30 30 30 29 29 28 28 28 27
28 28 29 29 32 35 36 36 35 35 37 38 39 43 44 43 43 42 41 40 39 37 34 33 31 29 28 26 23 21 19 19 20 21 23 24 24 25 27 31 35 38 41 43 46 47 48 49 49 49 49 49 50 49 49 50 51 53 54 54 53 52 50 47 45 44 42 40 38 37 36 34 33 31 31 31 31 31 30 30 29 29 28 28 28
27 26 25 26 30 34 36 37 37 38 39 40 40 43 44 44 43 42 42 42 42 40 38 36 33 30 29 29 27 25 23 22 21 21 21 22 22 22 23 26 30 33 35 38 40 42 44 46 47 48 48 48 48 48 49 50 50 51 53 54 55 54 51 48 47 45 43 41 40 38 37 36 34 33 32 32 32 31 30 30 29 29 28 27 27
29 25 23 26 31 34 35 36 37 39 41 42 44 45 45 44 43 43 43 44 44 43 41 38 35 32 30 29 29 28 27 25 24 23 23 22 22 22 22 23 25 27 30 32 34 36 39 42 44 45 46 46 46 47 48 48 49 50 52 53 55 54 52 49 48 47 45 42 41 39 39 37 35 34 34 33 33 32 31 30 29 28 28 27 27
28 22 22 28 33 36 36 35 35 38 40 42 43 45 45 44 43 43 45 46 46 44 42 40 37 34 32 30 29 29 28 28 27 26 25 24 24 23 23 23 23 23 26 27 29 32 35 38 40 42 43 43 44 45 46 46 47 48 50 52 54 54 51 49 48 47 45 43 41 40 39 38 36 36 35 34 34 33 32 30 29 28 28 27 28
24 19 23 30 34 37 38 35 34 37 39 41 43 44 45 44 42 43 45 47 47 45 42 40 38 35 33 31 30 29 28 28 28 27 27 27 26 25 25 24 23 22 22 24 25 28 31 34 36 37 39 41 42 43 44 44 45 46 48 50 52 52 50 48 48 46 44 42 41 40 38 37 37 36 36 35 34 33 32 30 29 28 27 27 28
21 20 27 32 36 39 36 32 32 36 38 40 43 45 45 44 43 44 45 46 47 46 43 40 38 36 34 33 31 30 29 28 28 27 28 28 28 27 27 26 24 23 22 22 23 25 28 30 32 34 36 38 40 42 43 43 44 45 46 48 50 50 49 48 47 45 43 41 40 38 38 37 37 36 36 35 33 32 31 30 29 27 27 27 28
22 25 30 34 38 38 34 31 33 35 38 41 43 44 43 43 44 44 45 46 46 45 43 40 38 36 35 34 33 32 30 29 28 27 27 28 28 28 28 27 26 26 25 23 22 23 25 27 29 31 33 36 38 41 42 42 43 44 45 47 48 48 48 47 46 44 42 40 38 37 37 37 36 35 35 34 32 31 30 29 28 28 28 28 29
25 29 34 38 40 38 33 33 35 38 40 42 43 42 42 43 44 44 45 46 46 44 42 39 38 36 35 34 33 33 32 30 29 28 27 27 28 28 28 28 27 26 26 24 23 22 24 25 27 29 32 34 37 40 41 42 43 43 45 45 46 46 46 45 44 43 41 39 38 36 36 36 35 34 33 32 31 31 30 29 29 29 29 30 30
25 31 37 41 41 38 35 36 38 39 41 42 42 41 42 43 44 44 46 47 46 44 41 40 39 37 34 34 33 33 32 31 30 29 28 27 27 27 28 28 28 27 26 25 24 23 23 24 25 27 30 33 36 38 40 41 42 42 43 44 44 45 45 44 42 41 39 38 37 36 36 35 34 33 33 32 31 31 31 30 30 30 30 31 31
26 34 39 41 40 39 38 39 40 40 41 42 42 41 42 43 43 45 47 47 46 44 42 41 41 38 35 33 32 32 31 31 30 29 29 28 27 27 28 28 27 27 27 26 25 24 23 23 24 27 29 32 34 36 39 40 41 41 42 43 44 44 43 41 40 39 38 37 36 35 35 35 34 34 34 33 33 32 32 31 31 31 31 31 31
29 36 39 39 38 38 39 40 41 42 42 43 43 43 43 43 43 44 46 47 46 45 43 43 42 39 36 33 31 31 31 31 30 29 29 28 28 28 27 27 27 26 25 26 26 25 23 23 24 27 30 32 34 35 38 39 40 41 42 42 42 42 41 39 38 38 37 35 35 35 35 36 36 35 35 35 34 34 33 32 32 31 31 31 31
35 39 39 38 38 39 40 40 41 42 43 42 42 43 44 43 43 44 45 46 46 46 46 44 41 38 36 33 32 31 31 31 30 30 29 29 28 28 27 26 25 24 23 24 25 25 24 23 25 27 30 32 33 35 37 39 40 41 41 41 40 39 38 38 37 36 35 34 34 34 35 36 36 36 36 36 35 34 33 32 32 32 32 32 32
39 39 39 39 40 41 41 41 42 42 42 42 42 43 43 42 42 43 44 45 46 47 47 43 40 37 35 33 33 32 32 31 30 30 30 29 28 27 27 26 24 23 22 23 23 23 23 23 24 27 29 31 33 34 35 37 38 38 38 38 37 37 36 36 35 34 34 33 33 34 35 36 36 36 36 36 35 35 34 33 33 34 34 33 32
39 39 39 40 41 42 42 42 43 43 43 42 41 42 42 41 40 42 43 44 45 47 46 42 39 36 34 33 33 33 33 32 31 30 30 30 29 27 26 25 23 22 21 21 21 22 23 23 24 27 29 31 32 32 33 34 34 34 35 35 34 34 34 33 33 33 32 32 32 33 34 35 36 36 36 36 36 35 35 35 35 35 35 34 34
39 40 41 41 43 43 43 43 43 43 43 42 41 41 41 40 40 41 43 43 44 46 45 40 37 36 34 33 33 33 33 33 33 32 31 29 28 26 24 22 22 21 20 20 21 21 22 23 24 26 29 31 31 30 30 30 30 30 31 32 32 32 32 32 32 32 32 33 33 34 35 36 36 36 35 35 34 34 34 34 35 35 35 34 34
39 40 41 43 44 44 43 43 44 43 42 41 40 41 40 39 39 41 42 42 44 46 43 39 36 35 34 33 33 33 33 33 33 33 31 28 26 24 22 20 20 20 20 20 21 21 22 23 24 26 28 30 30 29 28 28 28 26 26 29 30 30 31 32 32 33 33 34 35 36 36 36 35 34 33 32 32 33 33 34 34 34 34 34 33
39 41 43 45 45 45 43 42 42 42 39 38 39 40 39 38 39 40 41 41 43 44 41 37 36 35 34 33 32 32 32 33 33 32 30 27 25 22 19 18 18 19 20 20 20 21 22 23 24 25 27 28 28 28 27 27 27 25 25 28 30 29 30 31 32 32 33 34 34 34 34 34 33 31 30 30 31 32 33 34 34 34 34 35 34
40 41 43 44 44 43 42 40 40 39 37 36 37 38 37 37 37 38 38 39 40 40 39 36 35 34 33 32 32 31 31 32 32 30 27 25 22 19 17 16 16 17 18 19 20 21 22 23 24 25 26 26 26 26 26 26 26 25 26 28 29 29 29 29 29 29 29 29 30 30 30 30 30 29 29 30 31 32 34 34 34 34 35 36 34
42 41 41 40 40 40 40 40 39 38 36 35 36 36 36 36 36 36 37 38 38 38 37 35 34 33 32 31 31 30 29 30 30 28 25 22 19 16 15 14 14 15 17 18 19 20 21 22 23 24 25 25 25 24 24 24 23 22 23 26 29 29 29 29 28 28 28 27 27 26 26 26 27 28 29 30 30 32 33 34 34 35 36 34 31
41 40 38 38 39 41 41 40 38 35 34 35 36 35 35 34 34 35 36 36 36 36 36 34 33 32 31 31 30 28 28 28 28 25 23 19 15 13 12 12 13 14 16 17 18 19 20 21 21 22 23 24 24 23 22 22 22 21 22 25 28 29 29 30 29 28 28 27 27 27 25 24 24 26 26 27 28 29 30 31 32 33 32 29 27
41 39 37 39 42 42 39 36 34 33 35 36 34 32 32 33 35 36 35 35 35 35 35 33 32 31 30 29 28 26 26 27 25 22 19 16 13 11 10 11 12 13 14 15 16 17 18 20 20 21 22 22 22 21 21 21 21 21 22 23 26 27 27 28 28 28 28 28 27 27 25 24 24 24 24 24 25 25 26 28 30 29 27 25 24
41 39 39 40 40 37 35 35 36 37 37 34 31 30 32 34 36 35 33 33 34 34 34 32 31 29 28 28 27 25 24 24 23 19 16 14 12 11 10 11 11 12 13 14 15 16 17 18 18 19 20 20 20 20 20 20 21 22 22 22 23 24 25 26 28 28 28 28 27 26 26 26 26 26 26 25 25 24 25 26 26 25 23 22 22
42 40 39 37 35 36 39 40 40 38 34 30 29 31 34 36 35 33 31 33 34 33 32 31 29 28 27 26 25 23 22 22 20 17 14 11 10 11 10 10 10 11 12 12 13 14 15 15 16 17 18 18 18 19 19 19 20 22 23 23 21 20 21 24 26 28 29 29 29 28 28 27 27 27 26 26 26 26 26 26 26 25 24 22 22
40 38 36 36 37 39 40 39 37 34 31 29 30 33 36 35 32 30 30 33 34 33 31 30 28 27 26 25 24 22 21 20 19 16 13 10 9 9 9 9 9 10 10 11 11 12 12 13 14 14 14 15 16 17 18 18 20 21 24 26 24 20 18 19 21 24 27 28 28 27 26 25 25 26 26 26 27 27 26 27 27 27 27 27 28
35 36 38 39 38 37 37 38 36 32 31 32 34 35 35 32 29 28 30 32 32 31 30 29 27 26 24 23 23 21 19 18 17 15 13 10 9 8 8 8 8 9 9 10 10 11 11 11 12 12 12 13 15 16 17 18 19 21 22 25 26 25 24 22 19 18 19 20 20 21 22 22 24 25 25 25 27 27 26 26 26 26 26 27 28
35 39 39 37 36 38 40 39 35 32 32 33 34 32 28 26 26 28 30 30 30 30 30 28 26 24 23 21 21 20 19 18 17 15 13 11 10 9 8 8 8 8 9 9 10 11 11 12 12 13 13 14 15 16 17 18 19 21 21 23 25 26 28 29 27 22 19 18 18 19 20 20 21 22 22 23 25 25 25 25 25 25 26 27 28
40 39 35 34 37 41 40 36 32 30 29 28 26 24 23 25 26 27 27 28 29 29 28 27 25 23 21 20 19 19 18 17 16 16 15 13 11 10 9 9 9 9 10 11 11 12 13 13 13 13 14 15 16 17 17 17 18 19 20 21 23 24 26 27 28 27 26 24 24 24 23 23 22 22 22 23 24 24 24 24 25 25 27 28 29
40 35 34 37 40 39 35 30 28 27 26 24 23 23 24 24 23 24 26 28 28 27 26 25 22 21 20 19 18 18 18 17 16 16 15 14 13 12 12 11 10 11 11 12 13 14 13 14 14 15 15 17 17 17 16 16 17 18 19 20 21 22 23 24 24 25 26 28 29 28 28 28 27 26 26 27 27 27 27 27 28 28 28 28 28
36 34 37 40 39 34 30 28 28 27 26 24 23 23 23 22 23 25 27 27 26 25 24 22 21 20 19 18 18 17 17 16 16 16 15 15 14 14 14 13 12 12 12 13 14 14 13 13 13 14 14 16 16 15 15 16 18 18 18 19 20 20 21 22 22 24 26 28 30 30 31 32 31 31 31 32 32 32 32 32 32 31 31 31 31
34 37 40 40 35 29 27 28 28 27 25 23 22 22 23 24 25 26 25 24 23 23 23 22 21 20 19 18 17 17 16 16 16 16 16 15 15 14 14 14 15 14 13 13 12 11 11 12 12 12 12 13 13 13 14 16 16 16 17 18 18 19 20 21 22 24 26 27 28 29 30 31 32 32 33 33 33 33 33 33 32 32 32 32 32
Wind_Direction
317 312 306 299 290 279 269 260 251 244 240 237 235 235 234 234 233 232 233 234 233 232 231 231 233 233 235 235 232 230 232 233 231 232 236 235 231 232 235 237 238 238 238 238 239 239 237 234 230 227 226 226 226 225 224 223 222 221 222 224 226 228 230 233 236 238 242 247 250 251 253 255 261 267 273 274 271 264 256 251 249 249 249 249 249
357 349 337 324 311 298 283 270 259 250 243 238 236 236 237 236 235 234 234 234 233 234 233 233 235 237 239 237 233 233 234 233 233 235 239 238 232 231 236 237 237 238 238 238 240 240 239 237 234 231 229 228 227 226 226 226 224 223 223 224 226 229 231 234 236 237 240 245 247 247 249 254 262 268 272 270 266 258 247 240 239 241 244 247 248
16 13 7 354 335 320 302 284 270 259 251 243 238 237 238 237 237 236 236 236 236 236 236 236 238 240 244 241 235 237 240 237 237 241 243 240 235 233 237 238 237 238 238 238 240 241 242 241 239 236 232 230 228 226 226 225 224 224 224 226 228 230 232 234 235 236 238 240 240 240 245 254 263 265 264 264 262 254 243 234 232 234 238 243 245
19 20 18 12 1 345 322 303 288 272 259 249 242 238 237 237 238 238 238 238 238 238 238 239 240 240 244 245 239 238 243 241 237 237 238 238 235 233 234 236 237 239 239 239 240 242 244 243 241 239 236 234 231 229 227 225 225 225 225 227 229 231 232 234 236 237 237 235 233 233 238 243 250 254 254 255 254 246 240 236 232 233 235 239 243
22 23 23 21 16 7 347 321 301 285 272 261 250 242 239 239 240 240 240 240 239 240 240 241 241 239 239 241 238 234 237 238 234 233 234 234 234 233 234 237 240 241 240 241 241 243 244 244 243 241 239 237 234 231 229 228 228 228 229 230 232 234 235 238 239 239 237 233 231 230 230 230 237 245 243 245 249 243 239 236 232 232 233 236 239
26 27 28 27 24 18 10 353 322 296 285 278 266 251 243 242 242 241 241 241 241 241 242 241 239 239 238 237 237 233 233 236 235 236 237 237 238 237 236 238 240 241 241 241 242 242 243 244 244 242 241 239 237 235 231 229 228 229 231 233 234 236 238 239 239 238 235 232 232 235 237 239 242 240 228 230 240 239 236 233 229 229 230 232 235
27 29 31 31 29 26 22 14 359 326 296 283 274 264 253 246 244 243 243 242 242 242 243 242 240 239 239 240 241 239 238 240 240 240 242 243 243 241 239 238 239 241 241 241 242 242 243 244 244 244 243 241 240 238 234 230 229 229 231 233 235 237 238 238 238 237 234 233 234 237 241 245 246 243 236 232 231 232 234 232 229 228 229 230 233
27 29 31 33 33 31 29 24 17 0 326 293 277 272 265 256 250 246 245 244 243 244 244 244 242 241 240 241 242 243 244 245 246 246 244 243 242 242 241 240 240 241 242 242 243 243 243 243 244 244 243 243 241 240 236 232 230 230 232 233 235 237 238 239 239 237 235 235 236 237 240 242 244 246 247 244 239 234 232 230 230 229 229 231 233
28 29 31 33 34 34 33 30 26 18 6 341 299 277 270 266 260 254 251 248 246 245 245 245 245 245 243 242 243 244 245 247 248 249 246 243 244 244 242 241 240 241 242 243 243 244 244 244 244 244 244 243 243 242 239 235 233 232 232 234 235 236 238 239 239 236 235 235 237 239 240 240 241 243 245 245 242 237 233 232 232 230 230 232 235
28 30 31 32 33 35 35 33 31 28 24 13 347 309 280 271 266 262 259 256 253 250 247 246 246 245 244 244 244 245 246 246 245 246 247 247 247 247 245 242 241 240 240 242 243 244 244 245 245 245 245 245 244 244 241 238 235 233 233 235 237 238 239 240 239 236 235 236 238 240 242 241 240 242 244 245 244 241 239 238 237 236 236 237 239
26 28 29 29 30 32 34 34 33 31 28 25 18 5 332 294 277 268 264 262 260 257 253 250 247 246 246 246 246 247 247 246 245 243 245 246 247 248 248 246 243 242 241 241 242 242 243 244 245 246 246 246 245 244 244 242 238 235 234 235 237 238 239 241 241 237 235 236 237 240 243 246 249 252 255 254 251 247 243 241 240 239 239 240 242
25 25 25 26 26 26 28 30 31 31 30 28 26 22 13 351 317 293 276 266 261 258 256 254 251 249 248 247 248 249 248 247 246 246 246 246 248 249 249 247 245 242 241 241 241 242 243 244 245 245 245 245 246 245 245 244 241 238 237 236 238 238 238 240 239 236 235 236 238 243 247 251 254 258 261 259 254 251 246 243 242 239 237 238 240
23 23 22 23 23 23 23 24 26 27 28 29 28 26 23 18 4 339 312 290 276 266 259 256 254 252 251 250 249 249 248 246 245 246 247 249 251 251 250 248 247 245 243 242 242 243 245 246 246 246 246 247 247 246 245 244 242 240 238 237 238 238 238 239 239 237 237 239 242 246 249 252 254 257 259 257 253 247 239 236 236 236 236 238 240
22 21 20 21 22 22 21 21 21 22 23 24 25 25 25 23 20 12 354 325 302 286 274 266 261 258 256 255 253 251 249 247 246 246 246 248 250 251 252 252 251 250 249 249 248 247 247 249 249 248 248 248 248 247 246 244 242 241 239 238 238 238 238 239 239 239 239 240 242 244 247 251 254 257 258 257 253 247 239 234 232 231 232 235 238
18 18 18 19 19 19 19 19 18 18 17 17 18 20 21 22 22 19 13 0 343 317 294 281 274 269 265 262 259 256 254 252 251 250 249 249 249 250 251 252 252 254 254 254 253 251 250 250 249 249 248 247 248 247 246 244 243 241 239 238 238 237 237 238 238 238 238 239 241 243 246 250 253 256 258 257 255 250 244 239 235 231 230 232 236
14 14 13 14 14 15 16 16 15 14 14 13 14 13 14 15 17 17 16 11 4 354 334 309 289 277 273 271 269 266 262 259 256 254 253 252 252 252 252 252 253 254 255 254 254 253 253 252 251 250 249 248 248 247 247 245 243 242 239 238 237 236 236 237 237 237 238 239 242 244 246 249 252 254 256 255 253 248 243 239 237 235 232 232 235
12 12 10 8 9 10 12 13 12 11 10 9 9 9 9 8 8 9 10 9 7 5 358 344 322 299 284 275 272 272 272 269 264 261 258 256 254 254 254 254 254 254 254 255 256 255 255 253 252 251 250 249 249 248 247 246 244 243 241 239 237 235 235 236 236 237 238 239 241 243 245 248 250 251 252 251 249 245 241 238 237 237 236 236 237
8 9 8 5 5 5 6 6 7 8 7 6 5 4 4 4 3 2 2 1 1 1 1 357 347 334 317 297 283 275 274 274 273 270 267 263 260 257 256 256 255 255 256 256 256 255 255 254 253 252 251 249 249 249 248 246 244 243 242 240 238 236 235 236 236 236 237 238 241 242 244 246 247 248 248 248 245 243 240 238 238 238 238 239 240
1 3 3 1 2 2 2 1 360 1 1 2 1 359 359 358 357 357 356 355 354 351 352 353 351 347 339 325 308 291 281 276 274 274 272 270 267 264 262 260 259 258 257 257 256 255 255 254 253 252 251 250 250 249 248 246 245 244 242 241 238 235 235 236 236 236 236 238 240 241 243 244 245 246 246 244 243 241 240 239 239 239 240 241 243
354 355 357 357 357 359 360 359 357 356 355 355 355 354 354 353 352 351 350 348 346 345 343 343 343 343 340 333 323 309 296 284 277 274 273 272 272 270 267 265 263 261 260 259 257 257 256 255 254 252 251 251 250 249 248 246 245 244 243 241 238 235 234 235 235 235 236 238 240 241 244 245 245 245 244 242 241 240 239 239 240 241 241 242 242
348 348 351 351 353 354 355 355 355 355 353 352 350 349 349 348 348 348 347 345 343 341 339 337 336 334 333 331 327 320 310 297 285 278 274 274 275 273 271 269 266 263 262 260 259 258 257 256 255 254 252 252 251 251 249 247 245 244 243 241 238 234 234 235 235 234 235 237 240 241 243 244 244 244 244 242 239 238 238 238 239 241 241 242 241
344 343 346 348 349 351 351 350 350 351 352 352 350 347 345 345 345 345 344 344 342 340 337 333 331 328 326 325 324 321 316 308 298 287 278 274 274 273 273 272 269 267 265 263 261 260 259 258 256 255 254 253 252 252 250 247 245 244 242 240 237 233 233 234 234 234 235 237 239 240 242 242 242 242 242 240 239 238 237 238 239 240 242 243 242
342 338 342 347 348 348 347 346 345 345 347 347 346 346 345 344 343 342 342 342 340 339 336 332 328 324 322 319 318 317 314 310 306 298 288 279 272 269 270 270 270 269 268 265 264 262 260 259 257 256 255 254 253 252 250 248 246 245 243 240 236 232 232 234 234 234 234 236 238 239 240 240 240 239 239 238 237 237 238 239 240 241 242 243 243
342 337 341 344 344 345 346 344 342 341 341 341 341 341 343 343 342 340 338 338 338 337 335 333 329 324 320 317 314 313 311 308 306 301 296 289 280 271 266 266 268 269 268 266 265 264 262 260 258 256 255 253 252 251 250 248 247 245 243 240 235 232 232 233 234 234 234 236 238 239 240 239 238 238 237 237 236 236 237 238 240 241 242 242 242
341 338 339 340 340 343 343 341 338 338 337 337 337 337 339 341 340 338 336 335 335 335 333 332 330 326 322 319 315 312 309 306 304 301 297 295 289 280 270 264 264 265 266 266 265 263 261 259 258 256 255 254 253 251 250 249 247 246 243 240 235 232 232 234 234 234 235 237 239 240 240 239 238 237 236 236 236 236 237 239 240 241 241 241 241
340 336 334 336 338 339 338 335 332 333 334 335 335 335 336 337 336 335 334 334 333 332 331 330 329 327 324 322 319 315 310 306 303 300 297 294 291 288 281 271 264 262 263 264 264 264 262 259 258 257 256 255 253 252 250 249 248 245 242 238 234 232 234 235 234 234 235 237 239 240 240 239 238 238 237 237 236 237 238 240 242 242 242 241 240
333 329 331 335 336 335 334 330 329 332 333 333 333 334 334 334 333 332 332 332 332 331 329 328 327 326 324 323 321 318 313 308 303 299 296 293 291 289 287 281 272 264 260 260 262 263 263 261 259 257 255 254 253 252 250 248 246 243 239 235 232 232 234 235 233 234 236 237 239 239 239 239 239 238 238 237 236 237 238 242 244 244 243 242 240
324 328 334 335 334 333 332 329 330 332 332 331 332 332 333 332 331 331 331 332 331 331 329 328 326 325 323 322 320 318 314 310 304 298 295 293 291 288 287 285 279 270 262 260 259 261 262 261 259 256 254 253 252 250 249 246 243 240 237 234 234 234 234 232 232 234 235 236 237 238 238 238 238 238 238 238 237 238 240 243 245 245 243 242 240
321 329 334 333 332 331 329 327 329 331 330 331 332 333 334 333 331 331 331 332 331 330 330 329 327 325 324 322 319 317 314 311 306 301 296 292 290 288 286 285 282 275 266 261 260 259 259 258 257 256 253 251 250 249 247 245 242 238 236 235 235 234 232 231 232 233 234 235 236 236 236 236 236 237 237 237 238 239 242 245 246 245 242 240 238
319 328 331 330 330 328 325 323 325 328 330 331 332 333 334 334 333 332 331 331 330 329 329 330 328 327 325 322 320 317 315 312 307 304 300 294 289 286 283 281 280 276 269 262 259 259 258 257 257 255 253 250 248 247 246 244 242 239 237 235 233 231 231 231 232 233 234 235 234 233 233 234 234 234 235 235 237 240 243 246 248 246 243 239 237
317 326 328 327 326 324 321 320 321 325 327 329 329 330 330 331 332 331 331 331 330 328 327 327 328 328 326 323 321 318 315 312 309 306 302 298 292 285 279 277 277 275 271 265 261 258 257 258 258 256 253 250 248 246 244 242 239 237 235 233 231 230 230 230 231 233 234 234 233 231 230 230 231 231 231 233 235 239 243 246 247 245 241 238 237
319 324 324 322 322 320 318 317 318 320 323 326 327 326 326 328 329 328 330 331 331 328 325 323 324 326 325 324 322 319 315 313 311 308 305 301 295 287 280 276 274 273 272 268 263 259 258 258 259 257 254 251 248 245 242 239 237 234 232 231 231 230 230 231 232 233 233 232 230 230 229 229 229 229 230 233 236 239 243 244 244 241 238 237 237
320 320 319 318 317 317 315 314 314 315 317 321 323 323 323 324 325 326 328 330 330 328 325 323 322 323 324 324 324 321 317 314 312 310 307 303 297 291 284 278 274 273 271 267 263 260 258 258 259 257 255 252 249 245 241 238 235 233 232 231 231 231 232 233 233 232 231 229 227 228 229 229 229 229 231 234 237 240 242 242 240 237 236 236 237
316 315 314 314 315 315 314 312 312 312 313 315 318 320 320 320 321 322 325 328 329 328 326 324 322 321 322 322 322 321 319 316 313 312 309 305 299 293 288 282 276 273 271 268 266 263 260 259 259 258 255 253 250 245 240 237 235 234 233 233 233 234 233 233 232 230 229 227 226 227 229 229 230 231 233 235 238 240 241 239 236 234 234 235 236
312 312 312 312 313 313 313 312 312 311 310 311 314 317 316 315 317 319 322 325 327 327 326 324 321 321 321 320 320 320 320 319 317 314 310 306 302 296 290 286 281 278 275 273 270 267 264 262 260 258 256 253 249 244 239 237 235 236 236 235 234 233 233 231 230 228 227 227 227 228 230 231 232 234 236 238 240 241 239 237 235 235 235 236 236
313 312 311 312 312 312 312 312 312 310 307 308 313 315 313 312 314 317 320 323 325 326 325 322 321 321 321 320 319 319 319 320 318 315 310 307 302 296 291 287 284 282 280 277 273 269 266 263 260 258 255 252 248 242 238 236 235 234 236 236 233 230 230 229 228 227 226 226 228 229 230 232 234 236 237 239 239 238 236 235 235 236 237 237 238
315 314 312 311 311 311 311 312 311 308 306 308 313 314 310 309 312 316 319 322 324 325 324 322 321 321 321 320 319 318 318 319 318 315 310 305 300 294 290 288 286 285 284 281 278 274 270 265 260 256 253 251 248 242 237 235 232 226 227 233 233 229 228 229 228 228 228 228 230 231 232 233 235 235 234 233 233 232 232 233 234 235 237 238 238
318 317 315 314 312 311 311 312 310 307 307 311 314 311 306 306 310 315 318 319 322 324 323 320 320 320 320 319 319 318 318 318 317 314 309 304 297 292 288 287 286 287 287 284 281 277 271 265 260 255 252 249 246 241 236 233 228 220 218 227 233 231 229 229 228 228 229 230 231 232 232 232 232 229 228 227 228 229 231 232 234 234 235 237 238
319 319 319 318 316 313 313 313 311 309 312 315 313 308 303 303 308 313 315 317 320 322 321 319 318 319 318 317 317 316 317 317 316 312 308 302 296 291 288 288 288 289 287 284 281 276 271 266 260 254 250 245 241 238 234 231 229 222 218 224 230 231 231 231 230 229 229 229 230 230 229 228 227 225 224 224 226 230 232 232 233 235 237 239 240
320 321 322 321 319 317 315 313 311 311 314 316 314 308 301 301 307 313 315 317 320 320 319 317 317 318 317 317 316 316 316 317 314 310 306 302 295 292 292 292 293 292 288 284 280 276 271 267 261 254 248 242 238 234 231 229 227 220 217 223 227 228 230 231 230 230 230 229 228 227 224 224 223 222 224 226 227 232 236 237 237 237 240 244 246
320 322 322 321 321 318 313 311 310 312 316 317 313 305 300 303 310 314 316 318 319 318 316 316 317 317 317 316 315 315 315 316 313 309 305 301 297 296 299 300 299 295 289 285 281 276 271 266 260 253 247 242 238 233 229 225 220 212 212 223 229 228 230 231 231 231 231 229 227 225 221 220 223 224 226 229 230 232 237 241 244 245 247 250 251
320 320 320 321 323 320 316 314 314 317 320 316 307 299 301 309 314 315 317 318 317 316 315 316 316 316 316 316 315 314 314 314 312 308 305 304 305 308 310 309 304 298 292 286 280 275 270 264 259 252 245 241 237 232 227 224 220 212 209 222 233 232 232 233 232 231 229 226 225 224 221 223 230 234 236 238 239 238 237 238 244 250 254 256 258
319 318 319 323 325 323 321 319 318 319 318 309 300 301 310 316 316 317 318 317 315 315 315 316 316 316 316 315 313 312 313 313 311 309 308 310 316 319 318 315 309 300 292 285 279 273 268 263 258 251 245 240 236 232 228 226 226 218 208 215 232 237 234 234 234 233 232 229 226 224 224 229 237 242 244 244 242 239 236 234 237 242 247 254 262
317 317 320 324 323 320 318 317 317 318 313 303 303 311 316 318 318 318 317 315 314 315 315 315 316 316 316 315 312 311 312 312 310 309 310 316 322 326 323 318 313 304 293 286 279 273 267 262 257 252 246 242 239 237 234 230 229 224 211 207 220 235 238 237 236 235 234 235 234 232 232 236 240 243 244 244 241 238 235 234 234 234 234 237 243
316 319 322 322 319 318 317 318 319 318 310 306 310 314 316 317 319 318 315 314 314 314 314 315 316 317 317 315 311 309 309 309 308 307 310 317 321 325 324 318 313 307 296 288 282 275 269 264 260 255 251 248 244 242 240 235 231 229 219 210 211 220 229 237 243 244 241 240 241 240 239 238 239 239 241 242 241 238 235 234 237 238 237 235 233
317 321 321 319 318 319 320 321 320 316 309 308 309 310 312 316 317 315 313 312 313 313 314 316 317 317 317 314 310 308 307 307 305 302 305 312 314 315 315 312 309 306 298 291 286 278 272 266 262 258 254 251 246 243 242 239 234 231 227 220 216 216 217 221 230 241 243 242 243 245 243 239 237 237 237 237 238 238 237 237 237 237 238 239 238
322 323 321 319 320 322 322 321 318 313 309 310 310 312 315 316 315 314 312 311 312 314 314 316 317 317 316 314 311 308 306 305 303 298 297 299 302 302 301 298 296 294 290 287 282 277 273 269 266 263 258 254 251 246 242 241 237 233 231 229 226 225 223 222 222 225 229 231 235 240 240 237 235 236 235 236 237 238 238 238 235 232 231 233 235
325 324 321 320 322 323 322 321 319 317 316 319 322 324 323 319 314 312 311 312 314 315 314 316 318 318 317 315 311 308 307 305 303 299 294 291 291 292 290 288 286 281 277 275 271 269 267 264 261 260 256 253 251 248 244 243 243 240 237 235 232 231 231 230 229 229 231 232 234 237 238 236 234 233 234 237 238 237 237 239 240 239 238 237 236
325 322 321 323 324 324 323 322 322 324 326 328 331 329 325 319 315 313 314 316 316 316 317 319 321 321 319 317 313 309 307 304 302 299 294 291 289 287 285 284 283 280 277 275 273 272 271 268 264 261 258 254 253 250 247 243 242 239 237 235 234 233 232 234 234 233 233 234 232 232 234 236 236 235 235 236 238 239 239 240 241 244 246 245 244
322 320 323 325 325 323 323 323 325 327 328 329 330 329 325 320 316 316 318 320 320 320 322 324 325 324 322 319 316 313 308 305 302 299 295 291 287 286 286 284 282 280 278 278 277 276 274 271 268 265 262 260 259 255 249 244 241 239 236 235 235 234 233 233 233 232 232 233 232 230 231 234 237 238 239 239 240 241 242 243 243 244 245 246 246
321 323 325 326 325 324 325 326 328 331 331 330 329 326 322 319 319 321 323 324 324 324 325 327 327 327 325 322 318 316 312 307 304 300 297 294 289 285 285 285 284 282 279 276 277 281 281 279 276 272 266 264 262 256 250 247 244 242 241 238 236 236 235 234 233 233 233 234 235 235 235 235 236 239 241 242 244 244 245 246 246 246 246 246 247
Height
1473 1472 1471 1471 1471 1472 1473 1474 1475 1476 1477 1478 1479 1479 1481 1483 1484 1485 1487 1489 1491 1493 1495 1497 1498 1499 1500 1501 1502 1504 1507 1509 1511 1513 1516 1517 1519 1521 1523 1525 1526 1528 1529 1530 1532 1533 1535 1536 1537 1538 1539 1540 1541 1542 1544 1546 1547 1548 1549 1550 1551 1552 1553 1554 1554 1555 1556 1556 1556 1557 1557 1558 1558 1559 1559 1560 1560 1560 1560 1561 1561 1562 1562 1562 1563
1470 1468 1467 1467 1467 1467 1468 1470 1471 1472 1474 1476 1477 1478 1479 1480 1481 1483 1485 1486 1487 1489 1490 1492 1494 1496 1496 1497 1499 1502 1504 1505 1507 1510 1512 1514 1516 1517 1520 1521 1523 1525 1526 1528 1529 1530 1532 1533 1534 1535 1536 1537 1539 1540 1542 1543 1544 1545 1546 1547 1548 1549 1550 1551 1552 1553 1553 1554 1554 1555 1555 1556 1556 1557 1557 1557 1557 1558 1558 1558 1559 1559 1560 1560 1561
1467 1465 1464 1462 1463 1464 1465 1466 1467 1468 1470 1472 1474 1475 1476 1477 1479 1480 1482 1483 1484 1486 1487 1488 1491 1493 1495 1495 1497 1499 1501 1502 1505 1508 1509 1510 1512 1514 1516 1518 1520 1521 1523 1525 1526 1527 1529 1530 1531 1532 1533 1535 1536 1537 1539 1540 1541 1542 1543 1544 1545 1547 1548 1549 1549 1550 1551 1552 1552 1553 1553 1553 1554 1554 1554 1555 1555 1555 1556 1556 1557 1557 1558 1558 1559
1468 1465 1463 1461 1459 1460 1461 1463 1464 1465 1467 1468 1470 1471 1473 1474 1475 1477 1478 1480 1481 1483 1485 1486 1489 1491 1493 1494 1495 1496 1497 1500 1501 1503 1504 1506 1508 1510 1512 1514 1516 1518 1520 1522 1523 1525 1526 1527 1528 1529 1530 1532 1533 1534 1535 1536 1537 1539 1540 1541 1542 1544 1545 1546 1547 1547 1548 1549 1550 1550 1551 1551 1551 1551 1552 1552 1553 1553 1554 1554 1555 1555 1556 1557 1557
1470 1466 1463 1461 1459 1458 1459 1460 1461 1463 1464 1465 1467 1469 1470 1471 1472 1474 1475 1476 1478 1480 1482 1484 1486 1488 1489 1490 1491 1491 1492 1494 1495 1496 1499 1502 1504 1506 1508 1511 1513 1514 1516 1518 1519 1521 1522 1523 1525 1526 1527 1528 1530 1531 1532 1533 1535 1536 1537 1538 1539 1540 1542 1543 1544 1544 1545 1546 1547 1547 1548 1549 1548 1549 1550 1550 1550 1551 1552 1552 1552 1553 1554 1554 1555
1474 1470 1467 1463 1461 1459 1458 1457 1458 1460 1462 1464 1465 1467 1468 1469 1470 1471 1472 1473 1475 1477 1479 1481 1482 1483 1484 1485 1486 1485 1486 1488 1489 1491 1495 1497 1499 1502 1505 1507 1509 1510 1512 1513 1515 1517 1518 1520 1521 1522 1524 1525 1526 1527 1529 1530 1531 1532 1534 1535 1536 1537 1539 1540 1540 1541 1542 1543 1543 1544 1545 1545 1545 1546 1547 1548 1548 1549 1549 1549 1550 1551 1551 1552 1553
1476 1472 1469 1465 1462 1460 1459 1458 1457 1457 1458 1460 1462 1464 1466 1467 1469 1470 1470 1472 1473 1474 1476 1478 1479 1479 1480 1481 1482 1482 1482 1483 1487 1490 1492 1494 1496 1499 1501 1503 1505 1506 1508 1510 1511 1513 1515 1516 1518 1519 1520 1521 1523 1524 1525 1526 1528 1529 1531 1532 1533 1534 1535 1536 1537 1538 1539 1539 1540 1541 1542 1542 1543 1544 1544 1545 1546 1546 1546 1547 1547 1548 1549 1549 1550
1477 1474 1470 1468 1466 1463 1462 1460 1459 1458 1456 1457 1458 1461 1463 1465 1467 1467 1469 1470 1471 1473 1474 1474 1475 1476 1476 1477 1478 1479 1480 1482 1485 1487 1488 1490 1492 1494 1496 1499 1501 1503 1504 1506 1508 1509 1511 1512 1514 1515 1516 1518 1519 1520 1521 1523 1525 1526 1527 1528 1529 1530 1531 1532 1534 1535 1535 1536 1537 1538 1539 1540 1540 1540 1541 1542 1543 1543 1543 1544 1545 1545 1546 1547 1547
1480 1477 1473 1471 1469 1468 1467 1464 1461 1459 1457 1456 1456 1457 1459 1461 1463 1465 1466 1468 1469 1470 1471 1471 1472 1473 1474 1474 1475 1476 1478 1480 1482 1483 1484 1486 1487 1489 1492 1494 1496 1499 1500 1502 1504 1505 1507 1508 1510 1511 1512 1514 1515 1516 1518 1519 1521 1522 1523 1524 1525 1526 1527 1529 1530 1531 1532 1533 1534 1535 1536 1536 1537 1537 1538 1538 1539 1540 1540 1540 1541 1542 1543 1544 1544
1481 1479 1476 1475 1473 1472 1471 1467 1463 1461 1459 1458 1457 1456 1456 1457 1459 1461 1463 1465 1467 1467 1468 1468 1469 1470 1470 1471 1472 1473 1475 1477 1478 1479 1481 1482 1484 1485 1487 1489 1492 1494 1496 1498 1499 1501 1503 1504 1505 1507 1508 1510 1511 1512 1513 1515 1516 1518 1519 1520 1521 1523 1524 1525 1527 1528 1529 1530 1531 1531 1532 1532 1533 1533 1534 1534 1535 1536 1537 1537 1538 1539 1540 1541 1542
1482 1480 1478 1477 1476 1474 1472 1468 1465 1463 1461 1459 1457 1457 1456 1456 1456 1457 1460 1462 1463 1465 1465 1465 1466 1466 1467 1467 1468 1470 1472 1473 1473 1474 1476 1477 1479 1480 1482 1484 1486 1489 1491 1492 1494 1496 1498 1499 1501 1502 1504 1505 1506 1507 1509 1510 1512 1514 1515 1516 1518 1519 1520 1522 1523 1524 1525 1526 1526 1527 1527 1528 1529 1530 1531 1532 1532 1533 1533 1534 1535 1536 1538 1538 1539
1483 1481 1479 1478 1476 1474 1471 1468 1466 1464 1462 1460 1459 1459 1457 1456 1456 1455 1457 1457 1458 1460 1461 1462 1463 1463 1464 1464 1465 1467 1468 1469 1469 1469 1470 1471 1473 1474 1477 1479 1481 1483 1485 1487 1489 1491 1494 1495 1496 1498 1499 1500 1501 1503 1505 1506 1508 1509 1511 1512 1513 1515 1516 1517 1519 1520 1521 1521 1522 1523 1524 1525 1525 1526 1527 1528 1529 1530 1531 1531 1532 1533 1535 1535 1536
1484 1483 1481 1479 1476 1474 1472 1469 1468 1465 1463 1463 1461 1461 1459 1457 1456 1456 1457 1456 1455 1456 1456 1458 1459 1460 1461 1462 1462 1463 1464 1465 1465 1465 1466 1467 1468 1469 1471 1473 1475 1477 1479 1480 1483 1486 1488 1489 1491 1492 1493 1495 1497 1498 1500 1502 1503 1505 1506 1507 1509 1511 1512 1513 1514 1516 1517 1517 1518 1519 1520 1521 1522 1523 1524 1524 1525 1526 1527 1528 1529 1530 1532 1532 1533
1487 1486 1484 1482 1478 1476 1474 1471 1469 1467 1465 1465 1463 1463 1461 1458 1457 1456 1456 1456 1455 1454 1454 1454 1455 1456 1458 1459 1460 1460 1460 1461 1462 1462 1463 1464 1465 1465 1466 1468 1469 1471 1473 1475 1478 1481 1482 1483 1485 1486 1488 1490 1492 1493 1495 1497 1499 1500 1501 1503 1504 1506 1508 1509 1510 1512 1513 1514 1515 1515 1516 1517 1518 1519 1520 1520 1521 1522 1523 1524 1525 1527 1528 1529 1530
1489 1488 1486 1483 1478 1477 1476 1473 1470 1468 1466 1465 1464 1464 1463 1460 1458 1456 1456 1455 1454 1453 1453 1452 1452 1453 1454 1454 1456 1457 1457 1458 1458 1459 1460 1460 1461 1462 1463 1464 1464 1466 1468 1470 1473 1475 1476 1478 1479 1481 1483 1485 1486 1488 1490 1492 1493 1495 1496 1498 1500 1502 1503 1504 1506 1507 1508 1509 1510 1511 1512 1513 1514 1515 1515 1516 1517 1518 1519 1521 1522 1523 1525 1526 1527
1489 1487 1484 1481 1480 1479 1477 1474 1471 1469 1468 1467 1465 1464 1463 1461 1459 1458 1457 1455 1454 1453 1451 1451 1450 1450 1450 1450 1451 1453 1454 1455 1455 1455 1457 1457 1458 1458 1459 1460 1461 1462 1464 1466 1468 1470 1471 1473 1474 1475 1477 1479 1481 1483 1485 1486 1488 1490 1491 1493 1494 1496 1498 1499 1501 1502 1504 1505 1506 1507 1508 1509 1510 1511 1512 1512 1513 1515 1516 1517 1518 1519 1521 1522 1523
1490 1487 1485 1484 1482 1480 1477 1475 1473 1471 1469 1467 1466 1465 1463 1461 1459 1458 1457 1455 1454 1452 1451 1449 1448 1447 1447 1447 1448 1448 1448 1449 1450 1451 1452 1453 1454 1454 1455 1455 1456 1458 1459 1461 1463 1464 1466 1467 1469 1470 1472 1474 1475 1477 1479 1481 1483 1484 1485 1487 1489 1491 1493 1494 1496 1498 1500 1501 1502 1503 1504 1505 1506 1507 1507 1508 1509 1511 1512 1513 1514 1515 1517 1518 1519
1490 1489 1487 1485 1483 1480 1478 1476 1474 1472 1470 1468 1466 1465 1463 1461 1459 1457 1455 1454 1453 1452 1450 1449 1447 1446 1445 1444 1445 1445 1445 1444 1444 1446 1447 1448 1448 1449 1450 1451 1451 1453 1454 1456 1457 1458 1460 1461 1463 1465 1466 1468 1470 1472 1473 1475 1477 1478 1480 1482 1484 1486 1488 1489 1491 1493 1495 1496 1497 1499 1500 1501 1502 1503 1503 1504 1505 1506 1508 1509 1510 1512 1513 1514 1515
1489 1488 1487 1485 1483 1481 1478 1476 1474 1472 1470 1467 1466 1464 1462 1460 1458 1456 1455 1453 1452 1450 1449 1448 1446 1444 1443 1442 1442 1442 1442 1441 1440 1440 1441 1442 1443 1444 1445 1445 1447 1448 1449 1450 1451 1452 1454 1455 1457 1459 1460 1462 1464 1466 1468 1469 1471 1472 1474 1476 1478 1480 1482 1484 1486 1488 1490 1491 1493 1494 1495 1496 1497 1498 1499 1500 1501 1502 1503 1505 1506 1508 1509 1510 1512
1489 1488 1486 1485 1483 1481 1478 1476 1474 1472 1469 1466 1464 1461 1460 1458 1456 1455 1453 1451 1450 1448 1447 1445 1443 1442 1441 1440 1440 1439 1439 1438 1437 1436 1436 1435 1437 1438 1439 1440 1442 1443 1443 1444 1445 1446 1447 1449 1451 1453 1454 1456 1457 1459 1461 1463 1465 1466 1468 1470 1472 1474 1477 1478 1481 1483 1484 1486 1487 1489 1490 1491 1493 1494 1495 1496 1497 1498 1499 1501 1502 1504 1505 1507 1508
1490 1489 1487 1485 1483 1480 1478 1476 1473 1471 1469 1466 1463 1461 1459 1457 1454 1452 1450 1448 1447 1445 1444 1442 1441 1440 1439 1438 1438 1437 1436 1435 1434 1433 1432 1432 1432 1433 1434 1435 1436 1436 1437 1438 1439 1440 1441 1443 1445 1446 1447 1449 1451 1452 1454 1456 1458 1460 1462 1464 1466 1469 1471 1473 1475 1477 1479 1480 1482 1484 1485 1487 1489 1490 1491 1492 1493 1494 1495 1496 1498 1499 1501 1502 1504
1492 1490 1488 1485 1483 1480 1478 1476 1473 1471 1468 1466 1464 1461 1459 1456 1453 1451 1448 1446 1445 1443 1441 1439 1438 1437 1436 1435 1434 1434 1433 1432 1430 1429 1428 1428 1428 1428 1429 1429 1430 1431 1432 1432 1433 1434 1436 1437 1438 1439 1441 1442 1444 1446 1448 1449 1451 1453 1455 1457 1460 1462 1465 1467 1469 1471 1473 1475 1477 1479 1480 1482 1484 1485 1487 1488 1489 1490 1491 1492 1493 1495 1496 1498 1500
1492 1489 1488 1485 1483 1481 1478 1475 1472 1469 1466 1464 1461 1459 1457 1455 1452 1449 1447 1445 1443 1441 1439 1437 1435 1434 1433 1431 1430 1430 1429 1428 1427 1426 1425 1424 1424 1424 1424 1424 1424 1425 1426 1426 1427 1428 1429 1431 1432 1433 1434 1435 1437 1439 1441 1443 1445 1446 1448 1450 1453 1456 1459 1461 1463 1465 1468 1470 1472 1473 1475 1477 1479 1481 1482 1484 1485 1486 1487 1488 1489 1491 1492 1494 1496
1490 1488 1486 1484 1482 1480 1477 1473 1470 1467 1464 1461 1458 1456 1454 1452 1450 1448 1445 1443 1441 1439 1436 1435 1433 1431 1430 1428 1427 1426 1425 1424 1423 1422 1422 1422 1421 1420 1419 1419 1419 1419 1420 1420 1421 1422 1423 1424 1425 1426 1427 1429 1431 1433 1435 1436 1438 1440 1442 1444 1446 1449 1452 1454 1457 1459 1462 1464 1466 1468 1470 1472 1474 1476 1478 1479 1481 1482 1483 1484 1485 1486 1488 1490 1492
1488 1486 1484 1482 1479 1477 1475 1472 1469 1466 1463 1460 1457 1455 1452 1450 1448 1446 1443 1441 1439 1437 1434 1432 1430 1428 1427 1426 1424 1423 1422 1421 1420 1419 1419 1418 1418 1417 1416 1415 1415 1414 1414 1414 1415 1416 1417 1418 1419 1420 1421 1423 1425 1427 1428 1430 1432 1434 1436 1438 1441 1444 1447 1449 1451 1454 1456 1459 1461 1463 1465 1467 1469 1471 1473 1474 1476 1478 1479 1480 1481 1482 1484 1486 1487
1486 1484 1483 1480 1478 1476 1473 1471 1468 1465 1462 1459 1456 1454 1451 1449 1447 1444 1442 1439 1436 1435 1432 1430 1428 1426 1424 1423 1421 1420 1419 1418 1417 1416 1415 1414 1414 1414 1413 1412 1411 1410 1409 1408 1408 1409 1411 1412 1413 1415 1416 1417 1419 1421 1422 1424 1427 1429 1431 1433 1436 1439 1442 1444 1446 1448 1451 1453 1456 1458 1460 1462 1464 1466 1468 1470 1472 1473 1475 1476 1477 1478 1480 1481 1483
1484 1483 1480 1478 1476 1474 1471 1469 1466 1464 1461 1458 1455 1452 1449 1447 1445 1442 1440 1437 1434 1432 1430 1428 1425 1423 1421 1420 1418 1417 1416 1414 1413 1412 1411 1410 1410 1409 1408 1408 1406 1405 1403 1402 1403 1404 1405 1407 1408 1409 1410 1411 1413 1415 1417 1419 1421 1423 1425 1428 1431 1434 1436 1439 1441 1443 1446 1448 1450 1452 1454 1456 1459 1461 1463 1466 1468 1469 1470 1472 1473 1474 1475 1476 1478
1483 1481 1478 1476 1474 1471 1469 1466 1464 1461 1459 1456 1454 1451 1448 1446 1443 1440 1437 1434 1432 1429 1427 1425 1422 1420 1418 1416 1415 1413 1412 1410 1409 1407 1406 1405 1404 1404 1403 1402 1401 1400 1399 1398 1398 1399 1401 1402 1402 1403 1404 1406 1408 1409 1411 1414 1416 1418 1421 1423 1426 1429 1431 1434 1436 1438 1441 1443 1445 1447 1449 1451 1454 1457 1459 1461 1463 1465 1466 1467 1469 1470 1471 1471 1473
1480 1478 1476 1473 1471 1469 1466 1464 1461 1459 1456 1453 1450 1448 1445 1443 1440 1437 1435 1432 1429 1426 1423 1421 1419 1416 1415 1412 1410 1409 1407 1405 1403 1402 1401 1399 1398 1397 1397 1396 1396 1395 1394 1394 1394 1395 1395 1396 1396 1398 1399 1401 1402 1404 1406 1408 1411 1413 1416 1418 1421 1424 1426 1429 1431 1433 1435 1437 1440 1442 1444 1447 1450 1453 1455 1457 1459 1461 1461 1463 1464 1466 1466 1467 1468
1478 1476 1473 1471 1468 1466 1464 1461 1459 1456 1453 1450 1447 1444 1442 1439 1436 1434 1431 1429 1426 1422 1420 1418 1415 1413 1411 1409 1407 1404 1402 1400 1398 1396 1395 1394 1393 1392 1391 1391 1390 1390 1390 1390 1390 1390 1389 1390 1391 1392 1394 1396 1398 1400 1402 1404 1406 1409 1412 1414 1417 1419 1421 1424 1426 1428 1430 1432 1434 1437 1440 1443 1446 1449 1451 1453 1455 1456 1457 1459 1460 1461 1462 1463 1464
1477 1474 1471 1469 1466 1463 1460 1458 1455 1453 1450 1447 1444 1441 1439 1436 1433 1430 1428 1425 1422 1419 1416 1414 1412 1410 1408 1405 1403 1401 1398 1396 1394 1392 1390 1389 1388 1387 1387 1386 1386 1385 1385 1385 1384 1384 1383 1384 1385 1387 1389 1391 1393 1395 1398 1400 1403 1405 1408 1410 1412 1414 1416 1418 1420 1422 1425 1427 1430 1432 1435 1438 1441 1444 1446 1448 1450 1452 1453 1455 1456 1457 1458 1458 1459
1475 1472 1470 1467 1464 1461 1458 1455 1452 1449 1446 1443 1440 1437 1435 1433 1430 1427 1425 1422 1419 1416 1413 1410 1408 1406 1404 1402 1399 1397 1395 1393 1391 1389 1387 1385 1384 1383 1382 1382 1381 1381 1380 1379 1379 1378 1378 1379 1381 1383 1385 1387 1389 1391 1394 1397 1399 1401 1403 1405 1408 1409 1411 1413 1415 1417 1420 1422 1425 1428 1431 1434 1436 1439 1441 1444 1446 1448 1449 1451 1452 1453 1454 1454 1455
1472 1470 1467 1464 1461 1459 1456 1452 1449 1446 1443 1440 1438 1434 1431 1429 1427 1424 1421 1419 1415 1412 1409 1406 1404 1402 1399 1398 1395 1393 1391 1389 1387 1385 1383 1382 1380 1379 1378 1378 1377 1377 1376 1374 1374 1373 1374 1375 1377 1379 1381 1383 1385 1388 1390 1393 1395 1397 1399 1401 1403 1405 1406 1408 1410 1413 1415 1418 1420 1423 1426 1429 1432 1435 1437 1439 1441 1443 1445 1446 1448 1449 1449 1450 1451
1470 1467 1464 1461 1458 1455 1453 1450 1447 1444 1441 1438 1436 1432 1429 1427 1424 1421 1418 1415 1412 1409 1406 1402 1400 1398 1396 1394 1391 1389 1387 1385 1383 1381 1379 1378 1376 1375 1374 1374 1373 1372 1371 1370 1369 1369 1370 1371 1373 1375 1377 1379 1381 1384 1387 1389 1391 1393 1395 1397 1399 1400 1402 1404 1406 1408 1411 1413 1416 1419 1421 1424 1427 1430 1432 1434 1436 1438 1440 1442 1443 1444 1444 1446 1447
1466 1464 1461 1458 1455 1452 1449 1446 1443 1441 1438 1435 1433 1430 1427 1424 1422 1419 1416 1413 1409 1405 1402 1399 1396 1394 1392 1389 1387 1385 1382 1380 1379 1377 1375 1373 1372 1370 1369 1369 1368 1367 1367 1366 1366 1366 1366 1368 1370 1371 1373 1375 1378 1381 1384 1386 1388 1389 1391 1393 1395 1396 1398 1400 1402 1404 1407 1409 1412 1415 1417 1420 1423 1425 1428 1430 1432 1434 1436 1437 1438 1439 1440 1441 1443
1463 1460 1457 1455 1452 1449 1446 1443 1440 1437 1434 1432 1429 1427 1423 1420 1418 1415 1412 1409 1406 1402 1398 1395 1392 1390 1388 1386 1383 1381 1378 1376 1374 1373 1371 1369 1368 1366 1365 1364 1363 1363 1363 1362 1362 1363 1363 1365 1366 1368 1370 1372 1374 1378 1380 1382 1384 1386 1387 1389 1391 1393 1394 1396 1398 1400 1403 1405 1408 1410 1413 1415 1418 1421 1423 1426 1428 1430 1432 1433 1434 1435 1436 1437 1438
1460 1458 1454 1451 1448 1445 1442 1439 1436 1433 1430 1428 1426 1423 1419 1416 1414 1411 1409 1406 1402 1398 1395 1391 1389 1387 1384 1382 1380 1377 1375 1372 1370 1368 1367 1365 1364 1362 1361 1360 1359 1359 1359 1359 1359 1360 1361 1362 1363 1365 1367 1369 1372 1375 1377 1379 1381 1384 1385 1385 1387 1389 1391 1393 1395 1397 1399 1402 1404 1406 1408 1411 1413 1416 1419 1422 1424 1426 1427 1428 1429 1431 1432 1433 1434
1457 1454 1450 1447 1444 1440 1438 1435 1432 1429 1427 1425 1422 1419 1416 1413 1410 1408 1405 1402 1399 1395 1391 1388 1386 1383 1381 1379 1377 1375 1372 1369 1367 1365 1363 1361 1360 1359 1358 1357 1357 1356 1356 1356 1357 1357 1358 1359 1361 1362 1364 1366 1369 1372 1374 1376 1378 1381 1382 1382 1383 1386 1388 1390 1392 1394 1396 1398 1400 1402 1405 1407 1409 1412 1415 1418 1420 1421 1423 1424 1425 1426 1427 1428 1430
1454 1450 1446 1442 1439 1436 1433 1430 1428 1425 1423 1421 1418 1415 1412 1409 1407 1405 1402 1399 1396 1392 1388 1385 1382 1380 1378 1376 1374 1372 1369 1367 1364 1362 1360 1358 1357 1355 1354 1354 1354 1354 1354 1354 1354 1354 1355 1356 1358 1360 1362 1364 1366 1369 1371 1373 1375 1378 1380 1380 1381 1383 1385 1386 1388 1390 1392 1394 1396 1398 1401 1403 1406 1409 1412 1414 1416 1417 1418 1420 1421 1422 1422 1423 1426
1449 1446 1443 1439 1435 1432 1428 1425 1423 1420 1418 1417 1414 1411 1408 1405 1403 1401 1398 1395 1392 1388 1385 1382 1379 1377 1375 1373 1371 1369 1366 1364 1361 1359 1357 1355 1354 1352 1352 1351 1351 1351 1351 1352 1352 1352 1353 1354 1356 1358 1359 1361 1364 1366 1368 1370 1372 1375 1377 1377 1378 1380 1381 1383 1385 1387 1389 1391 1393 1395 1397 1400 1403 1406 1408 1411 1413 1413 1414 1416 1417 1418 1418 1420 1424
1444 1441 1438 1435 1431 1428 1424 1421 1418 1416 1414 1412 1409 1406 1403 1401 1399 1396 1394 1391 1387 1384 1381 1378 1376 1374 1372 1370 1368 1366 1363 1361 1359 1357 1354 1353 1351 1350 1349 1349 1349 1349 1349 1349 1350 1350 1351 1352 1354 1355 1357 1359 1361 1364 1366 1367 1369 1372 1374 1375 1375 1377 1379 1380 1382 1384 1386 1388 1390 1392 1394 1397 1400 1403 1405 1407 1409 1411 1411 1412 1412 1413 1415 1418 1420
1440 1437 1434 1431 1427 1423 1420 1417 1414 1412 1410 1408 1405 1401 1399 1397 1394 1392 1389 1387 1383 1380 1378 1375 1373 1371 1369 1367 1365 1363 1361 1359 1357 1355 1352 1351 1350 1348 1348 1347 1347 1347 1347 1348 1348 1349 1349 1350 1352 1353 1355 1357 1359 1361 1363 1365 1366 1369 1371 1372 1372 1374 1376 1378 1380 1381 1383 1385 1387 1389 1392 1395 1397 1399 1402 1404 1405 1407 1409 1408 1408 1409 1412 1414 1415
1435 1432 1430 1427 1423 1419 1416 1413 1411 1408 1406 1403 1400 1397 1395 1392 1390 1388 1385 1383 1380 1377 1375 1373 1371 1368 1366 1364 1362 1361 1359 1357 1355 1353 1351 1349 1348 1347 1346 1346 1346 1346 1346 1346 1346 1347 1348 1349 1350 1351 1353 1355 1357 1359 1361 1362 1364 1366 1368 1370 1371 1371 1373 1375 1376 1378 1380 1382 1385 1387 1390 1392 1395 1396 1398 1400 1402 1403 1405 1406 1407 1408 1409 1411 1412
1430 1428 1425 1423 1419 1416 1413 1410 1407 1404 1402 1400 1397 1393 1390 1388 1386 1384 1382 1379 1376 1374 1371 1370 1368 1366 1364 1362 1360 1358 1356 1355 1353 1351 1349 1348 1346 1346 1345 1345 1345 1345 1345 1345 1345 1346 1346 1347 1348 1350 1352 1353 1355 1357 1359 1360 1361 1363 1365 1368 1369 1370 1370 1371 1372 1374 1377 1379 1381 1384 1387 1389 1391 1393 1394 1396 1398 1399 1400 1402 1404 1405 1407 1408 1409
1426 1423 1421 1419 1416 1412 1409 1406 1403 1401 1398 1396 1393 1390 1387 1384 1383 1381 1378 1375 1372 1370 1368 1367 1365 1363 1361 1359 1357 1355 1354 1352 1351 1349 1348 1346 1345 1344 1344 1344 1344 1344 1344 1344 1344 1345 1345 1346 1347 1348 1350 1352 1353 1355 1356 1357 1359 1360 1362 1364 1366 1368 1368 1369 1369 1370 1372 1375 1377 1380 1383 1386 1387 1388 1390 1391 1392 1394 1396 1397 1399 1401 1402 1403 1404
1422 1420 1417 1414 1411 1408 1405 1402 1399 1398 1395 1392 1390 1387 1384 1381 1380 1378 1375 1372 1370 1367 1366 1364 1362 1360 1358 1356 1354 1353 1351 1350 1349 1348 1346 1345 1344 1343 1343 1343 1343 1343 1343 1343 1343 1344 1344 1345 1346 1347 1348 1349 1351 1352 1353 1354 1355 1357 1358 1360 1362 1364 1365 1366 1366 1367 1368 1371 1374 1376 1379 1381 1382 1384 1385 1386 1387 1389 1391 1393 1395 1396 1397 1398 1399
1419 1416 1413 1410 1407 1404 1400 1397 1395 1393 1391 1388 1385 1383 1381 1379 1377 1375 1372 1370 1368 1365 1363 1361 1359 1357 1356 1354 1352 1350 1349 1348 1347 1346 1345 1344 1343 1342 1342 1342 1342 1342 1342 1342 1342 1343 1343 1343 1344 1345 1346 1347 1348 1348 1350 1351 1352 1353 1355 1356 1358 1359 1360 1362 1363 1364 1365 1368 1371 1373 1375 1376 1378 1380 1381 1382 1383 1385 1387 1388 1390 1391 1392 1393 1395
1416 1413 1410 1407 1404 1400 1397 1394 1391 1389 1387 1384 1382 1380 1378 1376 1374 1372 1369 1367 1365 1363 1360 1358 1356 1355 1353 1351 1349 1348 1346 1345 1345 1344 1343 1342 1341 1341 1341 1340 1340 1340 1340 1340 1340 1341 1341 1341 1342 1343 1343 1344 1344 1345 1347 1348 1349 1350 1351 1352 1354 1355 1357 1358 1360 1362 1364 1365 1367 1369 1371 1373 1374 1376 1378 1379 1380 1381 1383 1384 1385 1387 1388 1389 1391
1413 1410 1407 1404 1401 1397 1394 1391 1388 1386 1383 1381 1379 1378 1376 1374 1371 1369 1367 1365 1362 1360 1358 1355 1354 1352 1350 1348 1347 1346 1344 1343 1342 1342 1341 1340 1340 1340 1339 1339 1339 1339 1339 1339 1339 1339 1339 1339 1340 1340 1340 1341 1341 1342 1344 1345 1345 1346 1347 1348 1350 1352 1353 1355 1357 1360 1361 1362 1364 1366 1368 1369 1371 1373 1374 1376 1377 1378 1379 1381 1382 1383 1384 1385 1387
1410 1407 1404 1401 1398 1394 1391 1388 1385 1383 1381 1378 1377 1375 1373 1371 1369 1366 1364 1362 1359 1357 1355 1353 1351 1349 1347 1346 1345 1344 1343 1341 1340 1340 1339 1339 1338 1338 1337 1337 1337 1337 1337 1337 1337 1337 1337 1337 1338 1338 1338 1339 1339 1340 1341 1341 1342 1343 1344 1345 1347 1349 1350 1352 1354 1356 1357 1358 1360 1362 1364 1366 1368 1369 1370 1371 1373 1374 1375 1376 1378 1379 1380 1381 1383
1407 1404 1400 1397 1394 1391 1388 1385 1383 1380 1378 1376 1375 1372 1370 1368 1366 1364 1362 1359 1357 1354 1352 1350 1349 1347 1345 1344 1343 1342 1341 1340 1339 1338 1337 1337 1337 1336 1336 1336 1335 1335 1335 1335 1335 1336 1336 1336 1336 1336 1337 1337 1337 1338 1339 1339 1340 1341 1342 1343 1345 1346 1347 1349 1351 1352 1353 1354 1356 1358 1360 1362 1363 1364 1366 1367 1368 1370 1371 1372 1374 1375 1376 1377 1378